This is the latest recevied weather packets stored in our database for station/object K8RRT. If no packets are shown the sender has not sent any weather packets the latest 10 day(s).
| Time | Temp. | Humidity | Pressure | Rain* | Wind** | Luminosity | Snow |
|---|---|---|---|---|---|---|---|
| 1776927764 | 10° C | 99% | 1012.7 hPa | 0 mm | - | 0 W/m² | - |
| 1776927461 | 10° C | 99% | 1012.8 hPa | 0 mm | - | 0 W/m² | - |
| 1776927158 | 10.56° C | 99% | 1012.7 hPa | 0 mm | - | 0 W/m² | - |
| 1776926855 | 11.11° C | 99% | 1012.6 hPa | 0 mm | - | 0 W/m² | - |
| 1776926553 | 10.56° C | 99% | 1012.8 hPa | 0 mm | - | 0 W/m² | - |
| 1776926248 | 10.56° C | 99% | 1013 hPa | 0 mm | - | 0 W/m² | - |
| 1776925945 | 11.11° C | 99% | 1013 hPa | 0 mm | - | 0 W/m² | - |
| 1776925640 | 11.11° C | 99% | 1013 hPa | 0 mm | - | 0 W/m² | - |
| 1776925336 | 10.56° C | 99% | 1013 hPa | 0 mm | - | 0 W/m² | - |
| 1776925032 | 10.56° C | 99% | 1013 hPa | 0 mm | - | 0 W/m² | - |
| 1776924730 | 10.56° C | 99% | 1012.9 hPa | 0 mm | - | 0 W/m² | - |
| 1776924428 | 10.56° C | 99% | 1013.1 hPa | 0 mm | - | 0 W/m² | - |
| 1776924124 | 10.56° C | 99% | 1013.1 hPa | 0 mm | - | 0 W/m² | - |
| 1776923822 | 11.11° C | 99% | 1013 hPa | 0 mm | - | 0 W/m² | - |
| 1776923519 | 11.11° C | 98% | 1013.2 hPa | 0 mm | - | 0 W/m² | - |
| 1776923215 | 11.11° C | 98% | 1013.1 hPa | 0 mm | - | 0 W/m² | - |
| 1776922912 | 11.11° C | 98% | 1013.1 hPa | 0 mm | - | 0 W/m² | - |
| 1776922608 | 11.11° C | 98% | 1013.1 hPa | 0 mm | - | 0 W/m² | - |
| 1776922304 | 11.11° C | 97% | 1013 hPa | 0 mm | - | 0 W/m² | - |
| 1776922002 | 12.22° C | 97% | 1013.1 hPa | 0 mm | - | 0 W/m² | - |
| 1776921699 | 11.67° C | 97% | 1013.2 hPa | 0 mm | - | 0 W/m² | - |
| 1776921396 | 11.67° C | 96% | 1013.3 hPa | 0 mm | - | 0 W/m² | - |
| 1776921093 | 11.67° C | 96% | 1013.4 hPa | 0 mm | - | 0 W/m² | - |
| 1776920790 | 12.22° C | 96% | 1013.3 hPa | 0 mm | - | 0 W/m² | - |
| 1776920487 | 12.22° C | 95% | 1013.2 hPa | 0 mm | - | 0 W/m² | - |
* Rain latest hour (hover to see other rain measurements)
** Current wind speed in m/s (hover to see current wind gust speed)